Regional Weather Roundup
Issued by NWS

Home | Current Version | Previous Version | Graphics & Text | Print | Product List | Glossary On
Versions: 1 2 3 4 5 6 7 8 9 10 11 12 13 14 15 16 17 18 19 20 21 22 23 24 25 26 27 28 29 30 31 32 33 34 35 36 37 38 39 40 41 42 43 44 45 46 47 48 49 50
000
ASUS43 KLOT 210208
RWRIL

ILLINOIS REGIONAL WEATHER ROUNDUP
NATIONAL WEATHER SERVICE CHICAGO/ROMEOVILLE IL
800 PM CST MON FEB 20 2017

NOTE: "FAIR" INDICATES FEW OR NO CLOUDS BELOW 12,000 FEET WITH NO
SIGNIFICANT WEATHER AND/OR OBSTRUCTIONS TO VISIBILITY.

* THESE STATIONS ARE NOT UNDER NWS QUALITY CONTROL. THEY ALSO MAY NOT
  REPORT WEATHER SUCH AS PRECIPITATION OR FOG.

ILZ001-002-007-009-015-016-024-210300-
NORTHWEST ILLINOIS

CITY           SKY/WX    TMP DP  RH WIND       PRES   REMARKS
MOLINE         CLOUDY    64  56  75 SW10      29.89R
STERLING*      CLOUDY    62  51  67 SE6       29.88S
SAVANNA*       DRIZZLE   59  55  89 W6        29.88S
$$

ILZ003-004-008-010-011-017-018-210300-
NORTH CENTRAL ILLINOIS

CITY           SKY/WX    TMP DP  RH WIND       PRES   REMARKS
ROCKFORD       CLOUDY    62  51  67 S18G28    29.90S
FREEPORT*      CLOUDY    61  50  68 S16       29.89S
ROCHELLE*      CLOUDY    59  51  75 SE15      29.90F
DE KALB*       CLOUDY    60  50  71 SE16      29.93S
PERU*          MOCLDY    61  49  65 SE15      29.91F
$$

ILZ005-006-012>014-019>023-210300-
NORTHEAST ILLINOIS

CITY           SKY/WX    TMP DP  RH WIND       PRES   REMARKS
CHICAGO-OHARE  CLOUDY    62  44  51 S17G26    29.94F
CHICAGO-MIDWAY CLOUDY    62  43  49 S10G23    29.95F
AURORA         CLOUDY    62  48  60 SE15      29.93S
LANSING*       MOCLDY    59  47  65 SE14      29.97F
JOLIET*        CLOUDY    62  50  65 SE7       29.95S
WAUKEGAN       CLOUDY    56  42  59 S14       29.93S
DUPAGE AIRPORT CLOUDY    62  46  55 S17G25    29.93R
KANKAKEE*      CLOUDY    59  47  66 SE9       29.98F
WHEELING       MOCLDY    61  43  51 S15       29.95F
MORRIS*        CLOUDY    62  48  60 S16G24    29.93S
ROMEOVILLE*    CLOUDY    59  50  71 S12       29.96R
NORTHERLY ISL    N/A     45  38  76 SE6         N/A
$$

LMZ740>746-210300-
SOUTHERN LAKE MICHIGAN

STATION/POSITION SKY/WX   TEMP    WIND        PRES    VSBY  WAVE
                          AIR SEA DIR/SP/G                  HT/PER
                          (F)     (DEG/KT/KT) (MB)    (MI)  (FT/S)
HARRISON CRIB              54     150/ 26/ 27   N/A
BURNHAM HARBOR             45     150/  3/  6   N/A
CALUMET HARBOR             61     150/ 11/ 15 1014.0F
BURNS HARBOR               61     150/ 11/ 22 1015.6F
MICHIGAN CITY              60     120/ 18/ 22   N/A
$$

ILZ025>027-034>036-040-047-049-050-058-095>099-210300-
WEST-CENTRAL ILLINOIS

CITY           SKY/WX    TMP DP  RH WIND       PRES   REMARKS
QUINCY         LGT RAIN  61  58  90 W6        29.91R
GALESBURG*     CLOUDY    65  53  64 SW7       29.90R
MACOMB*        CLOUDY    68  51  55 W13       29.93R
JACKSONVILLE*  CLOUDY    67  53  61 S13G21    29.90S
PITTSFIELD*    CLOUDY    67  54  63 SE10      29.89F
$$

ILZ028>032-037-038-041>044-048-051>054-059>061-210300-
CENTRAL ILLINOIS

CITY           SKY/WX    TMP DP  RH WIND       PRES   REMARKS
PONTIAC        CLOUDY    61  53  75 SE13      29.95S
BLOOMINGTON    PTCLDY    61  51  70 S16       29.96R
DECATUR        CLOUDY    64  51  62 SE15      29.94F
PEORIA         MOCLDY    66  51  58 S14       29.91F
LACON*         CLOUDY    64  51  63 S14       29.90S
LINCOLN*       MOCLDY    64  53  68 S9        29.93F
SPRINGFIELD    CLOUDY    66  51  58 S15       29.92F
TAYLORVILLE    MOCLDY    63  52  66 SE14      29.94F
$$

ILZ033-039-045-046-055>057-062-063-210300-
EAST-CENTRAL ILLINOIS

CITY           SKY/WX    TMP DP  RH WIND       PRES   REMARKS
CHAMPAIGN      PTCLDY    58  49  72 SE10      29.99S
RANTOUL*       CLOUDY    60  51  71 SE13      29.98F
MATTOON        PTCLDY    62  52  69 SE9       29.98F
PARIS*         PTCLDY    56  48  73 SE7       30.02S
$$

ILZ079-100>102-210300-
SOUTHWEST ILLINOIS

CITY           SKY/WX    TMP DP  RH WIND       PRES   REMARKS
ALTON          CLOUDY    64  54  68 SE10G18   29.93S
BELLEVILLE     CLOUDY    65  56  72 E6        29.93F
CAHOKIA*       CLOUDY    66  54  65 SE8       29.92F
SPARTA*        CLOUDY    64  54  70 SE10      29.96F
$$

ILZ064>066-069>071-074>076-080>082-084>086-088>090-092>094-210300-
SOUTH-CENTRAL ILLINOIS

CITY           SKY/WX    TMP DP  RH WIND       PRES   REMARKS
CARBONDALE     CLOUDY    63  52  67 SE7       29.97F
CAIRO*         MOCLDY    58  52  78 SE5       29.97F
EFFINGHAM*     CLOUDY    63  53  69 SE9       30.01S
MARION         MOCLDY    64  52  63 SE7       29.99F
MT. VERNON     CLOUDY    64  52  64 SE6       29.99F
CENTRALIA*     CLOUDY    65  54  67 SE9       29.97F
SALEM*         CLOUDY    66  51  58 SE7       29.98S
METROPOLIS*    PTCLDY    62  51  68 CALM      29.99F
$$

ILZ067-068-072-073-078-083-087-091-210300-
SOUTHEAST ILLINOIS

CITY           SKY/WX    TMP DP  RH WIND       PRES   REMARKS
LAWRENCEVILLE  MOCLDY    55  46  71 SE8       30.03F
FLORA*         PTCLDY    59  51  76 SE7       30.01S
FAIRFIELD*     CLOUDY    62  50  65 SE3       29.99F
HARRISBURG*    CLOUDY    59  53  80 SE5       30.01S
ROBINSON*      MOCLDY    58  48  70 S6        30.03F
CARMI*         CLOUDY    56  51  81 SE7       30.01F
$$

ABBREVIATIONS USED IN REMARKS
   TC - TEMPERATURE IN CELSIUS
  WCI - WIND CHILL INDEX
   HX - HEAT INDEX
  VSB - VISIBILITY
$$





USA.gov is the U.S. government's official web portal to all federal, state and local government web resources and services.